Back to catalog

NOAA 12 DEB

AliveSSO
NORAD 38546·DEBRIS·🇺🇸 United States

Launched May 14, 1991 from Vandenberg Space Force Base

Loading…

Next Passes (next 24 hours)

TLE

FreshSource: Space-Track

Epoch: Sep 14, 2026, 11:02 UTC

1 38546U 91032F   26257.45985549  .00000690  00000-0  23185-3 0  9999
2 38546  98.3863 247.8569 0011396   9.2570 142.2815 14.40161674772024

Track NOAA 12 DEB in real time with AllMySat

Download on the App Store